INFORMACIÓN METAR y TAF
METAR FOR GCXO
ADDS - METARS form results

(0307 UTC 24 August 2017)
Data provider http://aviationweather.gov/adds/metars/
 
METAR text: GCXO 240300Z AUTO VRB01KT 9999 NCD 26/03 Q1015
Conditions at: GCXO (TENERIFE/LOS ROD, ES) observed 0300 UTC 24 August 2017
Temperature: 26.0°C (79°F)
Dewpoint: 3.0°C (37°F) [RH = 23%]
Pressure (altimeter): 29.97 inches Hg (1015.0 mb)
Winds: variable direction winds at 1 MPH (1 knots; 0.5 m/s)
Visibility: 6 or more miles (10+ km)
Ceiling: at least 12,000 feet AGL
Clouds: sky clear below 12,000 feet AGL
Weather: no significant weather observed at this time

METAR text: GCXO 240230Z AUTO VRB01KT 9999 NCD 26/04 Q1015
Conditions at: GCXO (TENERIFE/LOS ROD, ES) observed 0230 UTC 24 August 2017
Temperature: 26.0°C (79°F)
Dewpoint: 4.0°C (39°F) [RH = 24%]
Pressure (altimeter): 29.97 inches Hg (1015.0 mb)
Winds: variable direction winds at 1 MPH (1 knots; 0.5 m/s)
Visibility: 6 or more miles (10+ km)
Ceiling: at least 12,000 feet AGL
Clouds: sky clear below 12,000 feet AGL
Weather: no significant weather observed at this time

Forecast for: GCXO (TENERIFE/LOS ROD, ES)
Text: TAF GCXO 240200Z 2403/2503 VRB05KT CAVOK TX36/2413Z TN24/2406Z
Forecast period: 0300 UTC 24 August 2017 to 0300 UTC 25 August 2017
Forecast type: FROM: standard forecast or significant change
Winds: variable direction winds at 6 MPH (5 knots; 2.6 m/s)
Visibility: 6 or more miles (10+ km)
Clouds: not forecast
Weather: no significant weather forecast for this period

 MAPA DE AEROPUERTO

 INFORMACIÓN DE PISTA
Pista 12 Longitud 11155 ft Ancho 148 ft
Elevación 2060 ft Umbral desplazado 0 ft Rumbo de pista 111
Pista 30 Longitud 11155 ft Ancho 148 ft
Elevación 2002 ft Umbral desplazado 0 ft Rumbo de pista 291

 FRECUANCIAS DEL AEROPUERTO
Tipo APP Nombre APP Frecuencia 119.7 MHZ
Tipo ATIS Nombre ATIS Frecuencia 118.575 MHZ
Tipo GND Nombre GND Frecuencia 121.7 MHZ
Tipo TWR Nombre TWR Frecuencia 118.7 MHZ

 RADIO AYUDAS DEL AEROPUERTO
Tipo VOR-DME Nombre Tenerife Norte Frecuencia 117700 KHZ
Tipo NDB Nombre Tenerife Norte Frecuencia 410 KHZ



Nuestro objetivo, educar a través de la simulación aérea y las redes de vuelo on line la cultura aeronáutica y el conocimiento técnico y operativo de volar un avión comercial; Ayudar en la formación de personas y o profesionales de aquellos que desea llegar a ser piloto privado o de líneas aéreas, militar, controlador aéreo, o conocer el mundo del tráfico aéreo, la simulación aérea, el vuelo, y todo lo referente con la aeronáutica.

Copyright 2006 - 2017
Clickair-Va desde 2006 son marcas registradas con permiso de Vueling S.A
Patrocinado por ACAE
Los foros de Clickair VA son foros privados para los miembros de la VA

Powered by Virtual Airlines Manager